| time (UTC) | temp C | wind direction | speed KPH | gust KPH | rain 1hr cm | rain 24hr cm | rain mn cm | humidity % | barometer mb |
| 20260901111532 | 12 | 154 | 1.6 | 0.0 | 0.00 | 0.00 | 0.00 | 17 | 1004.6 |
| 20260901110029 | 12 | 202 | 1.6 | 0.0 | 0.00 | 0.00 | 0.00 | 17 | 1003.7 |
| 20260901104528 | 12 | 148 | 3.2 | 0.0 | 0.00 | 0.00 | 0.00 | 18 | 1003.8 |
| 20260901103026 | 12 | 150 | 1.6 | 0.0 | 0.00 | 0.00 | 0.00 | 21 | 1003.9 |
| 20260901101550 | 12 | 195 | 1.6 | 0.0 | 0.00 | 0.00 | 0.00 | 22 | 1003.9 |
| 20260901100027 | 12 | 181 | 0.0 | 0.0 | 0.00 | 0.00 | 0.00 | 23 | 1003.6 |
| 20260901094534 | 12 | 196 | 0.0 | 0.0 | 0.00 | 0.00 | 0.00 | 37 | 1003.5 |
| 20260901093016 | 12 | 188 | 0.0 | 0.0 | 0.00 | 0.00 | 0.00 | 37 | 1003.6 |
| 20260901091511 | 12 | 210 | 0.0 | 0.0 | 0.00 | 0.00 | 0.00 | 37 | 1003.6 |
| 20260901090008 | 12 | 144 | 1.6 | 0.0 | 0.00 | 0.00 | 0.00 | 37 | 1003.1 |
| 20260901084503 | 12 | 152 | 1.6 | 0.0 | 0.00 | 0.00 | 0.00 | 37 | 1003.2 |
| 20260901083058 | 12 | 229 | 3.2 | 0.0 | 0.00 | 0.00 | 0.00 | 37 | 1003.4 |
| 20260901081600 | 12 | 148 | 1.6 | 0.0 | 0.00 | 0.00 | 0.00 | 37 | 1003.6 |
| 20260901080141 | 12 | 196 | 0.0 | 0.0 | 0.00 | 0.00 | 0.00 | 37 | 1004.2 |
| 20260901074549 | 12 | 133 | 0.0 | 0.0 | 0.00 | 0.00 | 0.00 | 36 | 1004.2 |
| 20260901073051 | 12 | 145 | 0.0 | 0.0 | 0.00 | 0.00 | 0.00 | 36 | 1004.3 |
| 20260901071548 | 12 | 127 | 0.0 | 0.0 | 0.00 | 0.00 | 0.00 | 41 | 1004.4 |
| 20260901070053 | 12 | 143 | 0.0 | 0.0 | 0.00 | 0.00 | 0.00 | 44 | 1004.9 |
| 20260901064554 | 12 | 137 | 0.0 | 0.0 | 0.00 | 0.00 | 0.00 | 45 | 1005.0 |
| 20260901063056 | 12 | 213 | 0.0 | 0.0 | 0.00 | 0.00 | 0.00 | 44 | 1004.4 |
| 20260901061559 | 12 | 157 | 0.0 | 0.0 | 0.00 | 0.00 | 0.00 | 40 | 1004.5 |
| 20260901060045 | 13 | 136 | 0.0 | 0.0 | 0.00 | 0.00 | 0.00 | 39 | 1005.2 |
| 20260901054550 | 13 | 137 | 0.0 | 0.0 | 0.00 | 0.00 | 0.00 | 41 | 1005.2 |
| 20260901053044 | 13 | 189 | 0.0 | 0.0 | 0.00 | 0.00 | 0.00 | 38 | 1005.2 |
| 20260901051544 | 13 | 154 | 0.0 | 0.0 | 0.00 | 0.00 | 0.00 | 37 | 1005.3 |
| 20260901050043 | 13 | 154 | 0.0 | 0.0 | 0.00 | 0.00 | 0.00 | 35 | 1005.4 |
| 20260901044559 | 13 | 130 | 0.0 | 0.0 | 0.00 | 0.00 | 0.00 | 35 | 1005.5 |
| 20260901043043 | 12 | 134 | 0.0 | 0.0 | 0.00 | 0.00 | 0.00 | 38 | 1005.7 |
| 20260901041542 | 12 | 127 | 0.0 | 0.0 | 0.00 | 0.00 | 0.00 | 52 | 1005.2 |
| 20260901040054 | 12 | 145 | 0.0 | 0.0 | 0.00 | 0.00 | 0.00 | 62 | 1005.5 |
| 20260901034541 | 12 | 144 | 0.0 | 0.0 | 0.00 | 0.00 | 0.00 | 65 | 1005.1 |
| 20260901033040 | 13 | 152 | 0.0 | 0.0 | 0.00 | 0.00 | 0.00 | 67 | 1004.6 |
| 20260901031539 | 13 | 137 | 1.6 | 0.0 | 0.00 | 0.00 | 0.00 | 69 | 1004.5 |
| 20260901030039 | 13 | 126 | 1.6 | 0.0 | 0.00 | 0.00 | 0.00 | 70 | 1004.8 |
| 20260901024547 | 13 | 157 | 0.0 | 0.0 | 0.00 | 0.00 | 0.00 | 70 | 1004.5 |
| 20260901023038 | 13 | 124 | 1.6 | 0.0 | 0.00 | 0.00 | 0.00 | 66 | 1004.6 |
| 20260901021543 | 13 | 175 | 0.0 | 0.0 | 0.00 | 0.00 | 0.00 | 62 | 1004.1 |
| 20260901020038 | 14 | 134 | 1.6 | 0.0 | 0.00 | 0.00 | 0.00 | 62 | 1004.5 |
| 20260901014533 | 14 | 186 | 3.2 | 0.0 | 0.00 | 0.00 | 0.00 | 61 | 1004.7 |
| 20260901013034 | 15 | 223 | 3.2 | 0.0 | 0.00 | 0.00 | 0.00 | 59 | 1004.3 |
| 20260901011532 | 15 | 114 | 3.2 | 0.0 | 0.00 | 0.00 | 0.00 | 57 | 1003.7 |
| 20260901010030 | 16 | 196 | 4.8 | 0.0 | 0.00 | 0.00 | 0.00 | 54 | 1004.0 |
| 20260901004530 | 16 | 205 | 3.2 | 0.0 | 0.00 | 0.00 | 0.00 | 52 | 1003.5 |
| 20260901003033 | 17 | 90 | 3.2 | 0.0 | 0.00 | 0.00 | 0.00 | 49 | 1003.5 |
| 20260901001532 | 18 | 213 | 1.6 | 0.0 | 0.00 | 0.00 | 0.00 | 45 | 1003.3 |
| 20260901000027 | 18 | 212 | 3.2 | 0.0 | 0.00 | 0.00 | 0.00 | 44 | 1003.4 |
| 20260831234532 | 18 | 222 | 3.2 | 0.0 | 0.00 | 0.00 | 0.00 | 43 | 1002.9 |
| 20260831233026 | 18 | 210 | 3.2 | 0.0 | 0.00 | 0.00 | 0.00 | 40 | 1003.0 |
| 20260831231538 | 18 | 220 | 3.2 | 0.0 | 0.00 | 0.00 | 0.00 | 40 | 1002.9 |
| 20260831230029 | 20 | 157 | 1.6 | 0.0 | 0.00 | 0.00 | 0.00 | 36 | 1002.7 |
| 20260831224545 | 20 | 196 | 3.2 | 0.0 | 0.00 | 0.00 | 0.00 | 33 | 1003.5 |
| 20260831223023 | 20 | 205 | 3.2 | 0.0 | 0.00 | 0.00 | 0.00 | 32 | 1003.5 |
| 20260831221525 | 20 | 219 | 3.2 | 0.0 | 0.00 | 0.00 | 0.00 | 31 | 1003.6 |
| 20260831220022 | 19 | 209 | 3.2 | 0.0 | 0.00 | 0.00 | 0.00 | 32 | 1003.6 |
| 20260831214527 | 19 | 126 | 3.2 | 0.0 | 0.00 | 0.00 | 0.00 | 32 | 1003.9 |
| 20260831213022 | 19 | 208 | 4.8 | 0.0 | 0.00 | 0.00 | 0.00 | 29 | 1004.1 |
| 20260831211521 | 20 | 110 | 3.2 | 0.0 | 0.00 | 0.00 | 0.00 | 31 | 1004.0 |
| 20260831210020 | 20 | 216 | 3.2 | 0.0 | 0.00 | 0.00 | 0.00 | 31 | 1003.5 |
| 20260831204520 | 20 | 161 | 0.0 | 0.0 | 0.00 | 0.00 | 0.00 | 32 | 1003.7 |
| 20260831203031 | 20 | 222 | 4.8 | 0.0 | 0.00 | 0.00 | 0.00 | 35 | 1004.1 |
| 20260831201518 | 19 | 193 | 4.8 | 0.0 | 0.00 | 0.00 | 0.00 | 38 | 1003.9 |
| 20260831200018 | 20 | 206 | 1.6 | 0.0 | 0.00 | 0.00 | 0.00 | 39 | 1003.8 |
| 20260831194516 | 20 | 216 | 3.2 | 0.0 | 0.00 | 0.00 | 0.00 | 39 | 1004.2 |
| 20260831193016 | 19 | 229 | 3.2 | 0.0 | 0.00 | 0.00 | 0.00 | 42 | 1004.0 |
| 20260831191531 | 18 | 219 | 3.2 | 0.0 | 0.00 | 0.00 | 0.00 | 45 | 1004.5 |
| 20260831190004 | 18 | 208 | 1.6 | 0.0 | 0.00 | 0.00 | 0.00 | 45 | 1004.6 |
| 20260831184601 | 18 | 216 | 1.6 | 0.0 | 0.00 | 0.00 | 0.00 | 46 | 1004.4 |
| 20260831183057 | 17 | 130 | 1.6 | 0.0 | 0.00 | 0.00 | 0.00 | 50 | 1005.0 |
| 20260831181552 | 17 | 223 | 1.6 | 0.0 | 0.00 | 0.00 | 0.00 | 51 | 1004.9 |
| 20260831180049 | 17 | 196 | 1.6 | 0.0 | 0.00 | 0.00 | 0.00 | 52 | 1004.8 |
| 20260831174545 | 17 | 171 | 1.6 | 0.0 | 0.00 | 0.00 | 0.00 | 53 | 1004.8 |
| 20260831173044 | 17 | 223 | 1.6 | 0.0 | 0.00 | 0.00 | 0.00 | 52 | 1004.7 |
| 20260831171535 | 17 | 200 | 1.6 | 0.0 | 0.00 | 0.00 | 0.00 | 51 | 1004.6 |
| 20260831170031 | 17 | 119 | 3.2 | 0.0 | 0.00 | 0.00 | 0.00 | 49 | 1004.6 |
| 20260831164526 | 16 | 217 | 1.6 | 0.0 | 0.00 | 0.00 | 0.00 | 50 | 1004.4 |
| 20260831163021 | 16 | 152 | 1.6 | 0.0 | 0.00 | 0.00 | 0.00 | 50 | 1004.8 |
| 20260831161517 | 16 | 133 | 0.0 | 0.0 | 0.00 | 0.00 | 0.00 | 50 | 1004.8 |
| 20260831160022 | 16 | 182 | 1.6 | 0.0 | 0.00 | 0.00 | 0.00 | 51 | 1004.8 |
| 20260831154508 | 15 | 172 | 0.0 | 0.0 | 0.00 | 0.00 | 0.00 | 51 | 1004.8 |
| 20260831153003 | 15 | 138 | 0.0 | 0.0 | 0.00 | 0.00 | 0.00 | 51 | 1004.6 |
| 20260831151502 | 14 | 134 | 0.0 | 0.0 | 0.00 | 0.00 | 0.00 | 50 | 1004.9 |
| 20260831150003 | 14 | 138 | 0.0 | 0.0 | 0.00 | 0.00 | 0.00 | 51 | 1004.9 |
| 20260831144600 | 13 | 140 | 0.0 | 0.0 | 0.00 | 0.00 | 0.00 | 51 | 1004.8 |
| 20260831143113 | 13 | 152 | 0.0 | 0.0 | 0.00 | 0.00 | 0.00 | 52 | 1004.9 |
| 20260831141558 | 13 | 161 | 0.0 | 0.0 | 0.00 | 0.00 | 0.00 | 50 | 1004.7 |
| 20260831140057 | 13 | 160 | 0.0 | 0.0 | 0.00 | 0.00 | 0.00 | 47 | 1003.8 |
| 20260831134600 | 13 | 150 | 0.0 | 0.0 | 0.00 | 0.00 | 0.00 | 46 | 1003.8 |
| 20260831133055 | 13 | 157 | 0.0 | 0.0 | 0.00 | 0.00 | 0.00 | 45 | 1003.8 |
| 20260831131607 | 13 | 191 | 0.0 | 0.0 | 0.00 | 0.00 | 0.00 | 38 | 1003.5 |
| 20260831130107 | 13 | 137 | 0.0 | 0.0 | 0.00 | 0.00 | 0.00 | 34 | 1003.1 |
| 20260831124600 | 13 | 168 | 0.0 | 0.0 | 0.00 | 0.00 | 0.00 | 30 | 1003.2 |
| 20260831123057 | 13 | 167 | 0.0 | 0.0 | 0.00 | 0.00 | 0.00 | 30 | 1003.1 |
| 20260831121554 | 13 | 157 | 0.0 | 0.0 | 0.00 | 0.00 | 0.00 | 31 | 1002.6 |
| 20260831120049 | 13 | 143 | 0.0 | 0.0 | 0.00 | 0.00 | 0.00 | 32 | 1001.7 |
| 20260831114548 | 13 | 143 | 0.0 | 0.0 | 0.00 | 0.00 | 0.00 | 32 | 1001.7 |
| 20260831113048 | 13 | 191 | 0.0 | 0.0 | 0.00 | 0.00 | 0.00 | 33 | 1001.7 |